�N����,����,�~����,�C��,���x,�C��,����,���ϕ���,�ő�u�ԕ���,�ő厞����,���˗�,�I�_���x,�n�����x,�ő啗���N��,DTYPE
"21/10/17","00:10",0.0,18.1,91.5,1008.3,335.8,1.1,2.2,332.6,0.00,16.7,21.9,"00:08:32",1
"21/10/17","00:20",0.0,17.9,91.7,1008.3,324.8,1.5,3.6,341.0,0.00,16.6,21.8,"00:18:00",1
"21/10/17","00:30",0.0,17.9,91.9,1008.1,325.6,1.6,3.2,336.7,0.00,16.6,22.0,"00:21:44",1
"21/10/17","00:40",0.0,17.8,92.1,1008.3,314.1,1.6,3.6,336.1,0.00,16.5,21.8,"00:33:20",1
"21/10/17","00:50",0.2,17.5,92.3,1008.3,284.4,1.8,4.9,250.5,0.00,16.3,21.9,"00:49:20",1
"21/10/17","01:00",0.2,17.2,92.5,1008.3,293.2,1.5,2.7,298.7,0.00,16.0,21.9,"00:50:40",1
"21/10/17","01:10",0.0,16.8,92.7,1008.8,288.1,1.7,4.5,238.5,0.00,15.7,21.8,"01:04:32",1
"21/10/17","01:20",0.2,16.2,92.9,1008.8,301.8,2.5,5.7,335.3,0.00,15.1,21.8,"01:19:54",1
"21/10/17","01:30",0.0,16.1,93.0,1009.3,320.8,2.6,5.0,320.4,0.00,15.0,21.8,"01:20:58",1
"21/10/17","01:40",0.0,16.0,92.9,1008.8,288.5,1.8,3.6,313.7,0.00,14.9,21.6,"01:38:24",1
"21/10/17","01:50",0.0,15.9,93.1,1008.8,299.8,2.2,5.5,334.4,0.00,14.8,21.8,"01:42:50",1
"21/10/17","02:00",0.0,15.7,92.9,1009.3,286.4,2.0,3.5,250.0,0.00,14.6,21.5,"01:51:04",1
"21/10/17","02:10",0.0,15.7,92.8,1009.3,292.2,1.6,3.4,252.7,0.00,14.6,21.5,"02:09:14",1
"21/10/17","02:20",0.0,15.6,92.8,1008.8,279.8,2.0,4.0,249.2,0.00,14.5,21.6,"02:16:56",1
"21/10/17","02:30",0.0,15.6,92.8,1009.3,285.7,1.1,2.5,224.5,0.00,14.5,21.5,"02:28:08",1
"21/10/17","02:40",0.0,15.4,92.8,1009.0,280.2,1.7,3.6,258.0,0.00,14.3,21.7,"02:37:12",1
"21/10/17","02:50",0.0,15.5,92.8,1009.3,287.2,1.7,3.5,254.5,0.00,14.4,21.3,"02:41:20",1
"21/10/17","03:00",0.2,15.4,92.8,1009.3,276.8,2.0,4.1,244.0,0.00,14.3,21.3,"02:54:48",1
"21/10/17","03:10",0.0,15.4,92.8,1008.8,278.0,1.6,3.3,246.9,0.00,14.3,21.4,"03:03:44",1
"21/10/17","03:20",0.0,15.3,92.8,1009.3,312.8,1.6,3.5,320.6,0.00,14.2,21.3,"03:15:52",1
"21/10/17","03:30",0.2,15.3,92.8,1008.8,293.7,1.7,4.0,307.7,0.00,14.2,21.4,"03:25:44",1
"21/10/17","03:40",0.0,15.2,92.9,1009.0,304.3,1.7,3.1,304.2,0.00,14.1,21.3,"03:38:08",1
"21/10/17","03:50",0.4,15.2,93.0,1008.8,292.6,1.6,4.0,250.0,0.00,14.1,21.2,"03:41:52",1
"21/10/17","04:00",0.4,15.1,93.2,1008.6,290.5,1.5,2.6,304.1,0.00,14.1,21.2,"03:50:32",1
"21/10/17","04:10",0.2,15.1,93.4,1008.3,309.7,2.2,4.4,338.5,0.00,14.1,21.3,"04:09:20",1
"21/10/17","04:20",0.2,15.0,93.5,1008.6,301.6,1.8,3.9,259.8,0.00,14.0,21.2,"04:10:40",1
"21/10/17","04:30",0.2,15.0,93.7,1008.8,311.8,1.6,2.8,348.8,0.00,14.0,21.1,"04:22:32",1
"21/10/17","04:40",0.2,14.9,93.9,1008.8,308.6,1.6,3.5,341.1,0.00,14.0,21.2,"04:34:32",1
"21/10/17","04:50",0.4,14.8,94.1,1008.8,293.9,2.0,4.8,342.4,0.00,13.9,21.1,"04:48:48",1
"21/10/17","05:00",0.2,14.8,94.2,1009.0,301.7,2.0,4.8,321.9,0.00,13.9,21.0,"04:56:32",1
"21/10/17","05:10",0.2,14.7,94.4,1008.8,286.5,1.7,2.9,261.8,0.00,13.9,20.9,"05:03:28",1
"21/10/17","05:20",0.4,14.8,94.5,1008.8,288.3,1.6,3.3,348.9,0.00,14.0,21.0,"05:14:08",1
"21/10/17","05:30",0.4,14.7,94.6,1008.8,287.6,1.7,4.4,303.3,0.00,13.9,20.9,"05:25:04",1
"21/10/17","05:40",0.2,14.7,94.7,1008.8,283.4,1.8,3.1,308.2,0.00,13.9,20.7,"05:35:36",1
"21/10/17","05:50",0.2,14.8,94.8,1009.0,293.6,2.0,4.5,239.7,0.00,14.0,20.8,"05:44:32",1
"21/10/17","06:00",0.2,14.7,94.9,1008.8,295.9,1.8,3.9,341.2,0.00,13.9,20.7,"05:56:00",1
"21/10/17","06:10",0.2,14.7,95.0,1009.0,291.6,1.7,3.3,292.3,0.00,13.9,20.6,"06:08:40",1
"21/10/17","06:20",0.4,14.7,95.1,1008.8,307.2,1.7,4.7,345.5,0.00,14.0,20.7,"06:10:02",1
"21/10/17","06:30",0.2,14.7,95.2,1009.0,319.7,2.3,4.7,350.7,0.00,14.0,20.6,"06:23:20",1
"21/10/17","06:40",0.2,14.7,95.4,1009.0,318.6,2.0,4.0,340.2,0.00,14.0,20.7,"06:33:44",1
"21/10/17","06:50",0.2,14.7,95.4,1009.3,317.2,2.6,5.2,339.8,0.00,14.0,20.6,"06:48:56",1
"21/10/17","07:00",0.0,14.8,95.6,1009.3,316.1,2.7,5.4,344.4,0.00,14.1,20.5,"06:58:40",1
"21/10/17","07:10",0.0,15.0,95.7,1009.5,326.5,2.2,4.3,353.3,0.01,14.4,20.4,"07:01:28",1
"21/10/17","07:20",0.0,15.1,95.7,1009.7,311.7,1.8,3.1,339.6,0.02,14.5,20.2,"07:10:24",1
"21/10/17","07:30",0.2,15.1,95.7,1010.0,309.5,2.1,4.1,339.3,0.00,14.5,20.3,"07:20:48",1
"21/10/17","07:40",0.2,15.1,95.8,1009.7,300.4,1.5,2.5,329.9,0.01,14.5,20.4,"07:37:04",1
"21/10/17","07:50",0.2,15.3,95.9,1010.0,292.9,1.5,3.4,313.4,0.04,14.7,20.3,"07:42:08",1
"21/10/17","08:00",0.0,15.4,95.9,1010.2,294.8,1.2,2.5,334.4,0.03,14.8,20.3,"07:53:20",1
"21/10/17","08:10",0.0,15.4,95.9,1010.4,303.5,1.6,2.7,318.4,0.02,14.8,20.4,"08:08:40",1
"21/10/17","08:20",0.0,15.4,96.0,1010.7,309.5,2.1,3.9,344.4,0.04,14.8,20.4,"08:15:28",1
"21/10/17","08:30",0.0,15.3,96.0,1010.4,293.1,2.1,6.8,298.8,0.08,14.7,20.4,"08:27:44",1
"21/10/17","08:40",0.0,15.5,95.9,1010.9,308.9,2.0,3.4,351.3,0.10,14.9,20.5,"08:38:16",1
"21/10/17","08:50",0.0,15.6,95.9,1011.4,317.4,2.2,4.4,317.1,0.08,15.0,20.3,"08:42:16",1
"21/10/17","09:00",0.0,15.9,95.4,1010.9,292.1,1.3,3.6,332.4,0.13,15.2,20.3,"08:59:20",1
"21/10/17","09:10",0.0,16.3,95.2,1011.2,298.3,1.2,3.3,346.1,0.15,15.6,20.3,"09:01:20",1
"21/10/17","09:20",0.0,16.0,94.9,1011.6,312.9,1.7,6.2,346.4,0.18,15.2,20.2,"09:15:44",1
"21/10/17","09:30",0.0,15.6,93.9,1011.6,312.5,1.8,4.3,318.1,0.08,14.7,20.5,"09:29:28",1
"21/10/17","09:40",0.0,15.6,93.4,1011.6,325.3,2.6,5.0,343.6,0.10,14.6,20.4,"09:33:20",1
"21/10/17","09:50",0.0,16.1,92.9,1011.2,314.8,2.1,4.3,348.5,0.19,15.0,20.4,"09:40:48",1
"21/10/17","10:00",0.0,16.3,90.9,1011.4,323.1,2.5,6.6,332.8,0.21,14.9,20.3,"09:59:20",1
"21/10/17","10:10",0.0,17.2,87.4,1011.6,336.1,3.4,7.2,328.6,0.37,15.1,20.5,"10:04:00",1
"21/10/17","10:20",0.0,18.2,82.5,1011.4,336.3,3.0,5.8,342.4,0.43,15.2,20.5,"10:15:28",1
"21/10/17","10:30",0.0,18.5,75.8,1011.4,336.0,3.1,5.9,336.7,0.48,14.2,20.4,"10:28:24",1
"21/10/17","10:40",0.0,17.8,73.8,1011.6,326.2,3.6,7.4,332.8,0.32,13.1,20.5,"10:38:24",1
"21/10/17","10:50",0.0,18.1,73.6,1011.2,333.9,3.0,6.8,352.5,0.40,13.4,20.4,"10:43:12",1
"21/10/17","11:00",0.0,17.4,73.6,1011.6,336.2,2.6,6.0,330.8,0.15,12.7,20.5,"10:53:04",1
"21/10/17","11:10",0.0,18.3,73.9,1011.2,324.6,2.1,4.5,338.5,0.50,13.6,20.5,"11:05:52",1
"21/10/17","11:20",0.0,18.9,70.8,1011.4,332.1,2.0,4.7,4.8,0.45,13.5,20.5,"11:17:04",1
"21/10/17","11:30",0.0,18.5,69.9,1010.9,333.8,2.7,6.4,331.7,0.39,12.9,20.4,"11:27:28",1
"21/10/17","11:40",0.0,18.9,69.2,1011.2,339.1,2.7,5.6,6.7,0.45,13.2,20.7,"11:33:36",1
"21/10/17","11:50",0.0,19.0,68.6,1010.9,321.7,3.0,6.0,326.2,0.44,13.1,20.5,"11:48:24",1
"21/10/17","12:00",0.0,18.9,68.4,1010.7,330.5,3.0,6.0,349.2,0.41,13.0,20.7,"11:54:56",1
"21/10/17","12:10",0.0,18.6,68.5,1010.9,340.0,2.5,4.9,334.5,0.34,12.7,20.7,"12:08:48",1
"21/10/17","12:20",0.0,19.3,67.5,1010.4,358.3,1.7,4.8,343.0,0.38,13.2,20.7,"12:10:48",1
"21/10/17","12:30",0.0,19.1,65.4,1010.4,17.7,1.8,3.9,28.1,0.36,12.5,20.9,"12:21:36",1
"21/10/17","12:40",0.0,18.2,67.2,1010.4,343.2,2.1,7.3,336.7,0.10,12.1,20.7,"12:39:12",1
"21/10/17","12:50",0.0,17.7,69.7,1010.7,9.0,2.2,4.4,42.8,0.14,12.1,21.1,"12:46:08",1
"21/10/17","13:00",0.0,17.4,71.4,1010.4,345.9,1.8,4.5,356.7,0.09,12.2,20.9,"12:52:08",1
"21/10/17","13:10",0.0,17.2,72.6,1010.9,350.2,1.8,3.9,15.2,0.07,12.3,20.8,"13:01:12",1
"21/10/17","13:20",0.0,17.1,74.6,1010.9,332.6,2.1,4.2,335.0,0.20,12.6,20.9,"13:12:16",1
"21/10/17","13:30",0.0,17.6,74.1,1010.9,315.8,2.3,5.0,334.7,0.26,13.0,20.8,"13:29:44",1
"21/10/17","13:40",0.0,18.2,71.5,1010.4,331.6,3.9,8.9,335.7,0.44,13.0,20.8,"13:39:20",1
"21/10/17","13:50",0.0,18.7,68.4,1010.7,341.8,3.2,6.2,346.1,0.48,12.8,21.0,"13:43:28",1
"21/10/17","14:00",0.0,19.1,66.6,1010.4,338.0,3.5,6.8,314.8,0.47,12.8,20.9,"13:55:12",1
"21/10/17","14:10",0.0,18.6,65.2,1010.4,333.1,3.5,6.6,326.4,0.35,12.0,20.9,"14:01:04",1
"21/10/17","14:20",0.0,18.5,65.7,1010.7,330.2,3.7,6.3,344.6,0.36,12.0,21.1,"14:14:56",1
"21/10/17","14:30",0.0,18.2,67.4,1010.7,333.7,3.4,6.5,349.2,0.26,12.1,20.9,"14:20:56",1
"21/10/17","14:40",0.0,18.9,65.4,1010.9,343.0,2.3,5.8,344.1,0.31,12.3,21.1,"14:39:28",1
"21/10/17","14:50",0.0,17.5,68.0,1010.9,340.3,2.6,5.0,320.2,0.10,11.6,20.9,"14:40:32",1
"21/10/17","15:00",0.0,17.4,71.5,1011.2,343.9,2.6,6.0,334.2,0.22,12.2,21.2,"14:52:48",1
"21/10/17","15:10",0.0,17.8,69.9,1011.2,334.0,3.0,5.2,331.8,0.26,12.3,21.1,"15:01:04",1
"21/10/17","15:20",0.0,17.4,69.0,1011.4,344.6,2.1,4.3,347.8,0.11,11.7,20.8,"15:19:36",1
"21/10/17","15:30",0.0,16.9,70.3,1011.6,340.7,2.0,3.9,330.6,0.06,11.5,21.1,"15:28:24",1
"21/10/17","15:40",0.0,17.0,71.9,1012.1,334.5,3.0,5.7,349.4,0.18,11.9,20.9,"15:30:24",1
"21/10/17","15:50",0.0,17.2,70.9,1012.3,330.5,2.8,6.3,326.0,0.17,11.9,21.0,"15:43:04",1
"21/10/17","16:00",0.0,16.6,70.4,1012.8,332.0,2.5,5.4,335.5,0.07,11.2,21.1,"15:50:48",1
"21/10/17","16:10",0.0,16.2,71.1,1012.3,326.7,2.2,4.4,322.9,0.05,11.0,21.1,"16:06:48",1
"21/10/17","16:20",0.0,16.0,72.0,1012.8,312.5,2.1,3.7,303.0,0.03,11.0,21.0,"16:10:02",1
"21/10/17","16:30",0.0,15.8,73.0,1012.6,335.9,2.1,4.0,343.2,0.01,11.0,21.0,"16:20:40",1
"21/10/17","16:40",0.0,16.0,73.1,1012.8,315.9,2.0,3.5,328.1,0.04,11.2,20.9,"16:39:12",1
"21/10/17","16:50",0.0,15.7,73.2,1012.8,325.8,2.1,5.0,323.6,0.01,11.0,20.9,"16:49:44",1
"21/10/17","17:00",0.0,15.8,74.0,1013.0,326.2,2.1,5.2,338.1,0.03,11.2,20.9,"16:50:48",1
"21/10/17","17:10",0.0,15.4,74.0,1013.0,331.2,2.6,5.8,332.9,0.02,10.8,20.9,"17:05:52",1
"21/10/17","17:20",0.0,15.1,74.4,1013.3,336.7,2.5,4.2,343.9,0.00,10.6,20.9,"17:12:08",1
"21/10/17","17:30",0.0,15.0,75.0,1013.3,319.4,2.2,3.6,327.0,0.00,10.6,20.8,"17:22:56",1
"21/10/17","17:40",0.0,14.8,75.4,1013.5,320.2,1.8,3.2,327.5,0.00,10.5,20.7,"17:32:32",1
"21/10/17","17:50",0.0,14.8,75.4,1013.8,316.4,1.8,4.5,326.3,0.00,10.5,20.7,"17:43:14",1
"21/10/17","18:00",0.0,14.7,75.2,1014.0,326.6,2.2,4.4,324.6,0.00,10.4,20.7,"17:53:46",1
"21/10/17","18:10",0.0,14.7,75.5,1013.8,324.5,2.0,3.1,321.9,0.00,10.5,20.6,"18:01:12",1
"21/10/17","18:20",0.0,14.5,75.8,1014.2,317.1,1.7,3.2,321.8,0.00,10.3,20.7,"18:12:00",1
"21/10/17","18:30",0.0,14.3,76.1,1014.5,320.5,1.8,3.2,338.3,0.00,10.2,20.7,"18:22:08",1
"21/10/17","18:40",0.0,14.3,76.6,1014.2,320.5,1.7,3.2,336.1,0.00,10.3,20.6,"18:31:06",1
"21/10/17","18:50",0.0,14.1,77.3,1014.7,314.1,1.7,2.7,330.7,0.00,10.2,20.6,"18:46:26",1
"21/10/17","19:00",0.0,14.1,77.7,1014.2,318.7,1.8,2.7,315.5,0.00,10.3,20.4,"18:50:08",1
"21/10/17","19:10",0.0,14.1,78.1,1014.7,311.4,1.7,2.8,333.3,0.00,10.4,20.5,"19:04:36",1
"21/10/17","19:20",0.0,14.0,78.8,1014.7,308.6,1.5,1.9,334.9,0.00,10.4,20.5,"19:12:26",1
"21/10/17","19:30",0.0,13.8,79.2,1014.7,301.3,1.2,1.7,305.3,0.00,10.3,20.6,"19:27:32",1
"21/10/17","19:40",0.0,13.9,79.7,1014.5,305.9,1.3,2.4,336.9,0.00,10.5,20.5,"19:36:56",1
"21/10/17","19:50",0.0,13.8,80.3,1014.9,319.6,1.8,3.2,334.1,0.00,10.5,20.4,"19:40:02",1
"21/10/17","20:00",0.0,13.8,80.4,1015.2,324.0,2.0,3.1,333.3,0.00,10.5,20.4,"19:52:06",1
"21/10/17","20:10",0.0,13.7,80.3,1015.2,313.1,2.0,2.8,308.7,0.00,10.4,20.2,"20:03:04",1
"21/10/17","20:20",0.0,13.8,79.9,1015.4,330.4,1.5,3.2,342.7,0.00,10.4,20.3,"20:18:40",1
"21/10/17","20:30",0.0,13.9,80.2,1015.4,330.5,1.1,2.2,353.5,0.00,10.6,20.2,"20:22:40",1
"21/10/17","20:40",0.0,13.7,81.1,1015.6,327.1,1.0,1.8,327.5,0.00,10.6,20.2,"20:36:42",1
"21/10/17","20:50",0.0,13.2,81.9,1015.4,283.7,0.6,1.4,313.5,0.00,10.2,20.2,"20:40:10",1
"21/10/17","21:00",0.0,13.2,82.7,1015.6,280.7,0.7,1.6,332.1,0.00,10.4,20.3,"20:59:30",1
"21/10/17","21:10",0.0,13.2,83.3,1015.9,317.0,0.8,1.4,311.9,0.00,10.5,20.2,"21:08:24",1
"21/10/17","21:20",0.0,13.2,83.5,1015.6,270.1,0.5,1.0,341.8,0.00,10.5,20.0,"21:15:58",1
"21/10/17","21:30",0.0,13.2,83.8,1016.1,281.9,0.7,1.6,315.4,0.00,10.6,20.0,"21:29:42",1
"21/10/17","21:40",0.0,13.1,84.0,1016.4,281.3,0.6,1.6,317.2,0.00,10.5,20.1,"21:31:42",1
"21/10/17","21:50",0.0,13.0,84.1,1016.4,242.6,0.2,0.5,245.0,0.00,10.4,20.3,"21:40:48",1
"21/10/17","22:00",0.0,12.7,84.6,1016.4,292.1,0.2,0.9,330.9,0.00,10.2,20.1,"21:56:20",1
"21/10/17","22:10",0.0,12.9,85.1,1016.6,312.8,0.8,1.8,330.1,0.00,10.5,20.0,"22:05:28",1
"21/10/17","22:20",0.0,13.0,85.6,1016.6,315.4,1.3,2.1,326.5,0.00,10.7,19.9,"22:10:16",1
"21/10/17","22:30",0.0,13.0,86.2,1016.6,342.1,1.1,1.7,348.0,0.00,10.8,20.2,"22:25:38",1
"21/10/17","22:40",0.0,13.0,86.8,1017.1,329.9,1.3,2.5,328.4,0.00,10.9,20.0,"22:39:40",1
"21/10/17","22:50",0.0,12.7,87.0,1016.8,321.6,1.1,2.8,348.4,0.00,10.6,19.8,"22:43:16",1
"21/10/17","23:00",0.0,12.6,86.5,1016.6,331.5,0.8,1.6,55.8,0.00,10.4,19.9,"22:50:52",1
"21/10/17","23:10",0.0,12.9,86.0,1016.8,312.2,1.0,1.6,306.1,0.00,10.7,20.0,"23:04:52",1
"21/10/17","23:20",0.0,12.9,85.8,1017.1,279.3,0.8,1.7,275.6,0.00,10.6,20.0,"23:17:24",1
"21/10/17","23:30",0.0,12.8,85.6,1017.1,313.9,1.1,1.9,346.7,0.00,10.5,19.9,"23:28:20",1
"21/10/17","23:40",0.0,12.8,85.4,1016.8,327.9,1.2,1.9,304.3,0.00,10.5,19.8,"23:39:36",1
"21/10/17","23:50",0.0,12.7,85.1,1017.1,331.8,1.6,3.2,337.9,0.00,10.3,19.9,"23:41:36",1
"21/10/17","24:00",0.0,12.6,85.0,1017.1,320.1,1.5,2.2,329.3,0.00,10.2,19.7,"23:52:36",1
